When you browse on this site, cookies collect data to enhance your experience and personalize the content and advertising you see.
Visit our Privacy Policy to learn more. By continuing to use the site, you agree to this use of cookies and data.
  • în România
  • Lista ţărilor
  • Pe 7 zile
  • Temperatura apei
  • Meteo pe hartă
  • Widget-uri
  • user-avatar
    Intrare

    Meteo pe oră la Offenbach am Mein

    Astăzi, 21 Octombrie, Luni

    Timp Temperatura Precipitaţii Vânt Presiune Umiditate
    00:00 +15°C° 0 mm 1 m/s 747 mmHg 90%
    01:00 +15°C° 0 mm 1 m/s 747 mmHg 90%
    02:00 +15°C° 0 mm 1 m/s 747 mmHg 91%
    03:00 +15°C° 0 mm 1 m/s 748 mmHg 92%
    04:00 +14°C° 0 mm 1 m/s 748 mmHg 92%
    05:00 +14°C° 0 mm 1 m/s 749 mmHg 92%
    06:00 +14°C° 0 mm 1 m/s 750 mmHg 93%
    07:00 +14°C° 0 mm 1 m/s 750 mmHg 93%
    08:00 +15°C° 0 mm 2 m/s 751 mmHg 87%
    09:00 +16°C° 0 mm 3 m/s 752 mmHg 82%
    10:00 +17°C° 0 mm 3 m/s 753 mmHg 76%
    11:00 +17°C° 0 mm 3 m/s 753 mmHg 73%
    12:00 +18°C° 0 mm 3 m/s 754 mmHg 70%
    13:00 +18°C° 0 mm 2 m/s 754 mmHg 67%
    14:00 +18°C° 0 mm 2 m/s 754 mmHg 69%
    15:00 +18°C° 0 mm 2 m/s 754 mmHg 70%
    16:00 +18°C° 0 mm 2 m/s 754 mmHg 71%
    17:00 +17°C° 0 mm 2 m/s 755 mmHg 73%
    18:00 +16°C° 0 mm 2 m/s 755 mmHg 75%
    19:00 +15°C° 0 mm 2 m/s 756 mmHg 77%
    20:00 +15°C° 0.1 mm 2 m/s 756 mmHg 78%
    21:00 +15°C° 0.1 mm 2 m/s 757 mmHg 79%
    22:00 +14°C° 0.1 mm 1 m/s 757 mmHg 80%
    23:00 +14°C° 0 mm 1 m/s 757 mmHg 81%

    Mâine, 22 Octombrie, Marţi

    Timp Temperatura Precipitaţii Vânt Presiune Umiditate
    00:00 +14°C° 0 mm 1 m/s 757 mmHg 82%
    01:00 +14°C° 0 mm 1 m/s 758 mmHg 82%
    02:00 +14°C° 0.1 mm 1 m/s 758 mmHg 83%
    03:00 +14°C° 0.1 mm 1 m/s 758 mmHg 83%
    04:00 +14°C° 0.1 mm 1 m/s 758 mmHg 84%
    05:00 +12°C° 0 mm 0 m/s 758 mmHg 84%
    06:00 +12°C° 0 mm 0 m/s 758 mmHg 85%
    07:00 +12°C° 0 mm 0 m/s 758 mmHg 85%
    08:00 +13°C° 0 mm 0 m/s 758 mmHg 81%
    09:00 +14°C° 0 mm 0 m/s 758 mmHg 77%
    10:00 +16°C° 0 mm 1 m/s 758 mmHg 73%
    11:00 +16°C° 0 mm 1 m/s 758 mmHg 69%
    12:00 +18°C° 0 mm 1 m/s 758 mmHg 65%
    13:00 +19°C° 0 mm 1 m/s 758 mmHg 60%
    14:00 +19°C° 0 mm 1 m/s 758 mmHg 62%
    15:00 +19°C° 0 mm 1 m/s 757 mmHg 63%
    16:00 +19°C° 0 mm 1 m/s 757 mmHg 65%
    17:00 +16°C° 0 mm 1 m/s 757 mmHg 68%
    18:00 +15°C° 0 mm 1 m/s 757 mmHg 72%
    19:00 +14°C° 0 mm 1 m/s 757 mmHg 76%
    20:00 +14°C° 0 mm 1 m/s 757 mmHg 77%
    21:00 +13°C° 0 mm 1 m/s 757 mmHg 78%
    22:00 +13°C° 0 mm 1 m/s 757 mmHg 80%
    23:00 +13°C° 0 mm 1 m/s 756 mmHg 81%

    Poimâine, 23 Octombrie, Miercuri

    Timp Temperatura Precipitaţii Vânt Presiune Umiditate
    00:00 +13°C° 0 mm 1 m/s 756 mmHg 82%
    01:00 +12°C° 0 mm 1 m/s 756 mmHg 83%
    02:00 +12°C° 0 mm 1 m/s 756 mmHg 84%
    03:00 +12°C° 0 mm 1 m/s 755 mmHg 86%
    04:00 +12°C° 0 mm 1 m/s 755 mmHg 87%
    05:00 +12°C° 0 mm 2 m/s 754 mmHg 88%
    06:00 +10°C° 0 mm 2 m/s 754 mmHg 88%
    07:00 +10°C° 0 mm 2 m/s 753 mmHg 89%
    08:00 +13°C° 0 mm 2 m/s 753 mmHg 84%
    09:00 +14°C° 0 mm 2 m/s 753 mmHg 79%
    10:00 +16°C° 0 mm 2 m/s 752 mmHg 74%
    11:00 +17°C° 0 mm 2 m/s 752 mmHg 71%
    12:00 +18°C° 0 mm 2 m/s 751 mmHg 68%
    13:00 +19°C° 0 mm 2 m/s 751 mmHg 66%
    14:00 +19°C° 0 mm 2 m/s 750 mmHg 68%
    15:00 +19°C° 0 mm 2 m/s 750 mmHg 70%
    16:00 +19°C° 0 mm 2 m/s 749 mmHg 73%
    17:00 +18°C° 0 mm 2 m/s 749 mmHg 78%
    18:00 +17°C° 0 mm 2 m/s 749 mmHg 83%
    19:00 +15°C° 0 mm 2 m/s 748 mmHg 88%
    20:00 +15°C° 0 mm 2 m/s 748 mmHg 89%
    21:00 +15°C° 0 mm 2 m/s 748 mmHg 90%
    22:00 +14°C° 0 mm 2 m/s 748 mmHg 91%
    23:00 +14°C° 0 mm 2 m/s 747 mmHg 91%

    24 Octombrie, Joi

    Timp Temperatura Precipitaţii Vânt Presiune Umiditate
    00:00 +14°C° 0 mm 1 m/s 747 mmHg 92%
    01:00 +13°C° 0 mm 1 m/s 747 mmHg 93%
    02:00 +13°C° 0 mm 1 m/s 747 mmHg 93%
    03:00 +12°C° 0 mm 1 m/s 747 mmHg 93%
    04:00 +12°C° 0 mm 1 m/s 747 mmHg 94%
    05:00 +12°C° 0 mm 1 m/s 747 mmHg 94%
    06:00 +12°C° 0 mm 1 m/s 747 mmHg 93%
    07:00 +12°C° 0 mm 1 m/s 747 mmHg 93%
    08:00 +13°C° 0 mm 1 m/s 747 mmHg 90%
    09:00 +14°C° 0 mm 1 m/s 748 mmHg 87%
    10:00 +15°C° 0 mm 1 m/s 748 mmHg 84%
    11:00 +16°C° 0 mm 1 m/s 748 mmHg 79%
    12:00 +18°C° 0 mm 1 m/s 748 mmHg 73%
    13:00 +20°C° 0 mm 1 m/s 748 mmHg 68%
    14:00 +20°C° 0 mm 1 m/s 748 mmHg 68%
    15:00 +20°C° 0 mm 1 m/s 748 mmHg 69%
    16:00 +20°C° 0 mm 1 m/s 748 mmHg 69%
    17:00 +19°C° 0 mm 1 m/s 748 mmHg 74%
    18:00 +18°C° 0 mm 1 m/s 749 mmHg 78%
    19:00 +16°C° 0 mm 1 m/s 749 mmHg 82%
    20:00 +16°C° 0 mm 1 m/s 750 mmHg 82%
    21:00 +15°C° 0 mm 1 m/s 750 mmHg 83%
    22:00 +15°C° 0 mm 1 m/s 751 mmHg 83%
    23:00 +15°C° 0 mm 1 m/s 751 mmHg 83%

    25 Octombrie, Vineri

    Timp Temperatura Precipitaţii Vânt Presiune Umiditate
    00:00 +14°C° 0 mm 1 m/s 751 mmHg 84%
    01:00 +14°C° 0 mm 1 m/s 752 mmHg 84%
    02:00 +14°C° 0 mm 1 m/s 752 mmHg 85%
    03:00 +13°C° 0 mm 1 m/s 752 mmHg 85%
    04:00 +13°C° 0 mm 1 m/s 753 mmHg 86%
    05:00 +13°C° 0 mm 1 m/s 753 mmHg 86%
    06:00 +13°C° 0 mm 1 m/s 753 mmHg 86%
    07:00 +13°C° 0 mm 1 m/s 754 mmHg 85%
    08:00 +14°C° 0 mm 1 m/s 754 mmHg 82%
    09:00 +15°C° 0 mm 1 m/s 754 mmHg 78%
    10:00 +16°C° 0 mm 1 m/s 755 mmHg 74%
    11:00 +17°C° 0 mm 2 m/s 755 mmHg 71%
    12:00 +17°C° 0 mm 2 m/s 755 mmHg 68%
    13:00 +18°C° 0 mm 2 m/s 755 mmHg 66%
    14:00 +18°C° 0 mm 2 m/s 755 mmHg 67%
    15:00 +18°C° 0 mm 2 m/s 754 mmHg 69%
    16:00 +18°C° 0 mm 2 m/s 754 mmHg 70%
    17:00 +18°C° 0 mm 1 m/s 754 mmHg 74%
    18:00 +15°C° 0 mm 1 m/s 754 mmHg 79%
    19:00 +14°C° 0 mm 1 m/s 754 mmHg 83%
    20:00 +14°C° 0 mm 1 m/s 754 mmHg 84%
    21:00 +14°C° 0 mm 1 m/s 754 mmHg 85%
    22:00 +13°C° 0 mm 1 m/s 754 mmHg 86%
    23:00 +13°C° 0 mm 1 m/s 754 mmHg 87%

    26 Octombrie, Sâmbătă

    Timp Temperatura Precipitaţii Vânt Presiune Umiditate
    00:00 +13°C° 0 mm 1 m/s 754 mmHg 88%
    01:00 +13°C° 0 mm 1 m/s 754 mmHg 89%
    02:00 +13°C° 0 mm 1 m/s 754 mmHg 90%
    03:00 +12°C° 0 mm 2 m/s 754 mmHg 90%
    04:00 +12°C° 0 mm 2 m/s 754 mmHg 91%
    05:00 +12°C° 0 mm 2 m/s 754 mmHg 91%
    06:00 +12°C° 0 mm 2 m/s 754 mmHg 90%
    07:00 +12°C° 0 mm 2 m/s 754 mmHg 90%
    08:00 +12°C° 0 mm 3 m/s 754 mmHg 86%
    09:00 +13°C° 0 mm 3 m/s 754 mmHg 81%
    10:00 +14°C° 0 mm 3 m/s 755 mmHg 76%
    11:00 +14°C° 0 mm 3 m/s 754 mmHg 73%
    12:00 +16°C° 0 mm 3 m/s 754 mmHg 70%
    13:00 +17°C° 0 mm 3 m/s 754 mmHg 67%
    14:00 +17°C° 0 mm 3 m/s 754 mmHg 69%
    15:00 +17°C° 0 mm 2 m/s 754 mmHg 70%
    16:00 +17°C° 0 mm 2 m/s 754 mmHg 72%
    17:00 +17°C° 0 mm 2 m/s 754 mmHg 76%
    18:00 +16°C° 0 mm 2 m/s 755 mmHg 80%
    19:00 +15°C° 0 mm 1 m/s 755 mmHg 85%
    20:00 +14°C° 0 mm 1 m/s 755 mmHg 86%
    21:00 +14°C° 0 mm 1 m/s 755 mmHg 87%
    22:00 +13°C° 0 mm 1 m/s 755 mmHg 89%
    23:00 +13°C° 0 mm 1 m/s 755 mmHg 89%
    Arată mai mult